This is the latest recevied weather packets stored in our database for station/object KC8YYF. If no packets are shown the sender has not sent any weather packets the latest 10 day(s).
| Time | Temp. | Humidity | Pressure | Rain* | Wind** | Luminosity | Snow |
|---|---|---|---|---|---|---|---|
| 1777085360 | 19.44° C | 75% | 1009.1 hPa | 0 mm | - | 0 W/m² | - |
| 1777085057 | 19.44° C | 75% | 1008.6 hPa | 0 mm | - | 0 W/m² | - |
| 1777084752 | 20° C | 75% | 1008.5 hPa | 0 mm | - | 0 W/m² | - |
| 1777084448 | 20° C | 74% | 1008.5 hPa | 0 mm | - | 0 W/m² | - |
| 1777084143 | 20° C | 74% | 1008.7 hPa | 0 mm | - | 0 W/m² | - |
| 1777083840 | 20° C | 72% | 1008.7 hPa | 0 mm | - | 0 W/m² | - |
| 1777083536 | 20° C | 72% | 1008.5 hPa | 0 mm | - | 0 W/m² | - |
| 1777083233 | 20° C | 73% | 1008.7 hPa | 0 mm | - | 0 W/m² | - |
| 1777082928 | 20° C | 71% | 1008.8 hPa | 0 mm | - | 0 W/m² | - |
| 1777082623 | 20° C | 73% | 1008.6 hPa | 0 mm | - | 0 W/m² | - |
| 1777082319 | 20.56° C | 68% | 1008.5 hPa | 0 mm | - | 0 W/m² | - |
| 1777082013 | 20.56° C | 67% | 1008.4 hPa | 0 mm | - | 0 W/m² | - |
| 1777081709 | 20.56° C | 66% | 1008.7 hPa | 0 mm | - | 0 W/m² | - |
| 1777081405 | 20° C | 68% | 1008.5 hPa | 0 mm | - | 0 W/m² | - |
| 1777081101 | 20.56° C | 64% | 1008.4 hPa | 0 mm | - | 0 W/m² | - |
| 1777080801 | 20.56° C | 61% | 1008.6 hPa | 0 mm | - | 0 W/m² | - |
| 1777080496 | 21.11° C | 58% | 1008.3 hPa | 0 mm | - | 0 W/m² | - |
| 1777080189 | 21.11° C | 60% | 1008.3 hPa | 0 mm | - | 0 W/m² | - |
| 1777079884 | 20.56° C | 56% | 1008.3 hPa | 0 mm | - | 0 W/m² | - |
| 1777079579 | 21.11° C | 62% | 1008.2 hPa | 0 mm | - | 0 W/m² | - |
| 1777079274 | 20.56° C | 57% | 1008.4 hPa | 0 mm | - | 0 W/m² | - |
| 1777078971 | 20.56° C | 62% | 1008.3 hPa | 0 mm | - | 0 W/m² | - |
| 1777078668 | 21.11° C | 56% | 1008.2 hPa | 0 mm | - | 0 W/m² | - |
| 1777078365 | 21.11° C | 59% | 1008.1 hPa | 0 mm | - | 0 W/m² | - |
| 1777078064 | 20.56° C | 60% | 1008.1 hPa | 0 mm | - | 0 W/m² | - |
* Rain latest hour (hover to see other rain measurements)
** Current wind speed in m/s (hover to see current wind gust speed)